Station Historical Data
Daily Summary for August 31, 2017 Units:  English    Metric   Both
« Previous Day
Next Day »
Daily Weekly Monthly Yearly Custom
  High: Low: Average:
Temperature: 95.8 °F 69.8 °F 79.8 °F
Dew Point: 51.5 °F 33.3 °F 44 °F
Humidity: 46 % 12 % 30 %
Wind Speed: 15.0 mph 0.0 mph 3 mph
Wind Gust: 18.0 mph - -
Wind:- - SSE
Pressure: 29.86 in 29.80 in -
Precipitation: 0.00 in    
Historical Graphs
 
 
Tabular Data for August 31, 2017
Time Temperature Dew Point Pressure Wind Wind Speed Wind Gust Humidity Rainfall Rate (Hourly) solar
00:04 72.9 °F 42.1 °F 29.80 in East 2.0 mph 12.0 mph 33 % 0.00 in 0.00 W/m2
00:09 72.9 °F 41.3 °F 29.80 in East 7.0 mph 8.0 mph 32 % 0.00 in 0.00 W/m2
00:14 72.8 °F 42.0 °F 29.80 in East 6.0 mph 11.0 mph 33 % 0.00 in 0.00 W/m2
00:19 72.8 °F 42.0 °F 29.80 in East 4.0 mph 12.0 mph 33 % 0.00 in 0.00 W/m2
00:24 72.8 °F 42.0 °F 29.80 in East 4.0 mph 12.0 mph 33 % 0.00 in 0.00 W/m2
00:29 72.7 °F 42.0 °F 29.80 in East 2.0 mph 9.0 mph 33 % 0.00 in 0.00 W/m2
00:34 72.7 °F 42.0 °F 29.80 in East 7.0 mph 9.0 mph 33 % 0.00 in 0.00 W/m2
00:39 72.7 °F 42.0 °F 29.80 in East 4.0 mph 9.0 mph 33 % 0.00 in 0.00 W/m2
00:44 72.7 °F 42.0 °F 29.80 in East 5.0 mph 8.0 mph 33 % 0.00 in 0.00 W/m2
00:49 72.7 °F 42.0 °F 29.80 in East 2.0 mph 8.0 mph 33 % 0.00 in 0.00 W/m2
00:54 72.6 °F 42.7 °F 29.81 in East 4.0 mph 11.0 mph 34 % 0.00 in 0.00 W/m2
00:59 72.6 °F 42.7 °F 29.81 in East 1.0 mph 7.0 mph 34 % 0.00 in 0.00 W/m2
01:04 72.6 °F 42.7 °F 29.81 in East 2.0 mph 9.0 mph 34 % 0.00 in 0.00 W/m2
01:09 72.6 °F 42.7 °F 29.81 in East 7.0 mph 8.0 mph 34 % 0.00 in 0.00 W/m2
01:14 72.5 °F 43.3 °F 29.81 in East 5.0 mph 11.0 mph 35 % 0.00 in 0.00 W/m2
01:19 72.5 °F 43.3 °F 29.81 in East 9.0 mph 12.0 mph 35 % 0.00 in 0.00 W/m2
01:24 72.4 °F 43.2 °F 29.81 in East 5.0 mph 11.0 mph 35 % 0.00 in 0.00 W/m2
01:25 72.4 °F 43.2 °F 29.81 in East 6.0 mph 11.0 mph 35 % 0.00 in 0.00 W/m2
01:30 72.3 °F 43.1 °F 29.81 in East 5.0 mph 9.0 mph 35 % 0.00 in 0.00 W/m2
01:35 72.2 °F 43.1 °F 29.81 in East 7.0 mph 9.0 mph 35 % 0.00 in 0.00 W/m2
01:40 72.2 °F 43.1 °F 29.80 in ESE 6.0 mph 11.0 mph 35 % 0.00 in 0.00 W/m2
01:45 72.2 °F 43.8 °F 29.80 in ESE 7.0 mph 11.0 mph 36 % 0.00 in 0.00 W/m2
01:50 72.2 °F 43.8 °F 29.80 in East 7.0 mph 12.0 mph 36 % 0.00 in 0.00 W/m2
01:55 72.2 °F 43.1 °F 29.80 in East 4.0 mph 12.0 mph 35 % 0.00 in 0.00 W/m2
02:00 72.1 °F 43.0 °F 29.80 in East 6.0 mph 14.0 mph 35 % 0.00 in 0.00 W/m2
02:05 72.1 °F 43.0 °F 29.80 in East 8.0 mph 14.0 mph 35 % 0.00 in 0.00 W/m2
02:10 72.1 °F 43.0 °F 29.80 in ESE 9.0 mph 13.0 mph 35 % 0.00 in 0.00 W/m2
02:15 72.1 °F 43.7 °F 29.80 in ESE 7.0 mph 11.0 mph 36 % 0.00 in 0.00 W/m2
02:20 72.0 °F 43.6 °F 29.80 in ESE 7.0 mph 12.0 mph 36 % 0.00 in 0.00 W/m2
02:25 72.0 °F 43.6 °F 29.80 in ESE 4.0 mph 15.0 mph 36 % 0.00 in 0.00 W/m2
02:30 72.0 °F 43.6 °F 29.80 in East 5.0 mph 14.0 mph 36 % 0.00 in 0.00 W/m2
02:35 71.9 °F 43.5 °F 29.80 in East 6.0 mph 15.0 mph 36 % 0.00 in 0.00 W/m2
02:40 71.9 °F 44.2 °F 29.80 in East 5.0 mph 14.0 mph 37 % 0.00 in 0.00 W/m2
02:45 71.8 °F 44.2 °F 29.80 in East 2.0 mph 12.0 mph 37 % 0.00 in 0.00 W/m2
02:50 71.8 °F 44.2 °F 29.80 in ESE 6.0 mph 11.0 mph 37 % 0.00 in 0.00 W/m2
02:55 71.7 °F 44.1 °F 29.80 in East 5.0 mph 13.0 mph 37 % 0.00 in 0.00 W/m2
03:00 71.7 °F 44.1 °F 29.80 in East 8.0 mph 13.0 mph 37 % 0.00 in 0.00 W/m2
03:05 71.6 °F 44.7 °F 29.80 in East 8.0 mph 14.0 mph 38 % 0.00 in 0.00 W/m2
03:10 71.6 °F 44.7 °F 29.80 in East 7.0 mph 14.0 mph 38 % 0.00 in 0.00 W/m2
03:15 71.5 °F 44.6 °F 29.80 in ESE 12.0 mph 13.0 mph 38 % 0.00 in 0.00 W/m2
03:20 71.5 °F 44.6 °F 29.80 in ESE 8.0 mph 14.0 mph 38 % 0.00 in 0.00 W/m2
03:25 71.4 °F 44.5 °F 29.80 in ESE 7.0 mph 15.0 mph 38 % 0.00 in 0.00 W/m2
03:30 71.4 °F 44.5 °F 29.80 in East 8.0 mph 18.0 mph 38 % 0.00 in 0.00 W/m2
03:35 71.4 °F 44.5 °F 29.80 in East 14.0 mph 14.0 mph 38 % 0.00 in 0.00 W/m2
03:40 71.4 °F 44.5 °F 29.80 in East 7.0 mph 14.0 mph 38 % 0.00 in 0.00 W/m2
03:45 71.3 °F 44.4 °F 29.80 in East 6.0 mph 14.0 mph 38 % 0.00 in 0.00 W/m2
03:50 71.3 °F 44.4 °F 29.80 in East 7.0 mph 15.0 mph 38 % 0.00 in 0.00 W/m2
03:55 71.3 °F 45.1 °F 29.80 in ESE 5.0 mph 12.0 mph 39 % 0.00 in 0.00 W/m2
04:00 71.2 °F 45.0 °F 29.80 in ESE 2.0 mph 13.0 mph 39 % 0.00 in 0.00 W/m2
04:05 71.2 °F 45.0 °F 29.80 in East 8.0 mph 14.0 mph 39 % 0.00 in 0.00 W/m2
04:10 71.2 °F 45.0 °F 29.80 in ESE 5.0 mph 13.0 mph 39 % 0.00 in 0.00 W/m2
04:15 71.2 °F 45.0 °F 29.80 in ESE 11.0 mph 12.0 mph 39 % 0.00 in 0.00 W/m2
04:20 71.2 °F 45.0 °F 29.80 in East 6.0 mph 14.0 mph 39 % 0.00 in 0.00 W/m2
04:25 71.2 °F 45.0 °F 29.80 in ESE 5.0 mph 14.0 mph 39 % 0.00 in 0.00 W/m2
04:30 71.1 °F 44.9 °F 29.80 in ESE 12.0 mph 12.0 mph 39 % 0.00 in 0.00 W/m2
04:35 71.1 °F 44.9 °F 29.80 in East 7.0 mph 12.0 mph 39 % 0.00 in 0.00 W/m2
04:36 71.1 °F 44.9 °F 29.80 in East 5.0 mph 12.0 mph 39 % 0.00 in 0.00 W/m2
04:41 71.1 °F 44.9 °F 29.80 in East 4.0 mph 13.0 mph 39 % 0.00 in 0.00 W/m2
04:46 71.0 °F 44.8 °F 29.80 in ESE 8.0 mph 9.0 mph 39 % 0.00 in 0.00 W/m2
04:51 71.0 °F 44.8 °F 29.80 in ESE 7.0 mph 12.0 mph 39 % 0.00 in 0.00 W/m2
04:52 71.0 °F 44.8 °F 29.80 in ESE 11.0 mph 12.0 mph 39 % 0.00 in 0.00 W/m2
04:57 71.0 °F 44.8 °F 29.80 in ESE 8.0 mph 13.0 mph 39 % 0.00 in 0.00 W/m2
05:02 71.0 °F 44.8 °F 29.80 in East 6.0 mph 16.0 mph 39 % 0.00 in 0.00 W/m2
05:07 71.0 °F 44.1 °F 29.80 in ESE 9.0 mph 14.0 mph 38 % 0.00 in 0.00 W/m2
05:12 71.0 °F 44.8 °F 29.80 in East 2.0 mph 12.0 mph 39 % 0.00 in 0.00 W/m2
05:18 70.9 °F 44.0 °F 29.80 in ESE 8.0 mph 14.0 mph 38 % 0.00 in 0.00 W/m2
05:23 70.8 °F 44.6 °F 29.80 in ESE 6.0 mph 14.0 mph 39 % 0.00 in 0.00 W/m2
05:28 70.8 °F 44.0 °F 29.80 in East 15.0 mph 15.0 mph 38 % 0.00 in 0.00 W/m2
05:33 70.7 °F 44.5 °F 29.80 in East 6.0 mph 8.0 mph 39 % 0.00 in 0.00 W/m2
05:38 70.6 °F 44.5 °F 29.80 in Calm   6.0 mph 39 % 0.00 in 0.00 W/m2
05:43 70.6 °F 44.5 °F 29.80 in East 4.0 mph 6.0 mph 39 % 0.00 in 0.00 W/m2
05:48 70.5 °F 44.4 °F 29.80 in Calm   7.0 mph 39 % 0.00 in 0.00 W/m2
05:53 70.5 °F 43.7 °F 29.80 in ESE 5.0 mph 7.0 mph 38 % 0.00 in 0.00 W/m2
05:58 70.4 °F 44.3 °F 29.81 in ESE 1.0 mph 9.0 mph 39 % 0.00 in 0.00 W/m2
06:03 70.4 °F 44.3 °F 29.81 in ESE 6.0 mph 7.0 mph 39 % 0.00 in 0.00 W/m2
06:08 70.4 °F 44.3 °F 29.81 in East 4.0 mph 6.0 mph 39 % 0.00 in 0.00 W/m2
06:13 70.3 °F 43.5 °F 29.81 in Calm   7.0 mph 38 % 0.00 in 0.00 W/m2
06:18 70.3 °F 44.2 °F 29.81 in ESE 1.0 mph 8.0 mph 39 % 0.00 in 0.00 W/m2
06:23 70.3 °F 43.5 °F 29.81 in Calm   9.0 mph 38 % 0.00 in 0.00 W/m2
06:27 70.3 °F 43.5 °F 29.81 in ESE 1.0 mph 4.0 mph 38 % 0.00 in 0.00 W/m2
06:32 70.3 °F 44.2 °F 29.81 in ESE 1.0 mph 7.0 mph 39 % 0.00 in 5.00 W/m2
06:37 70.3 °F 43.5 °F 29.81 in ESE 2.0 mph 6.0 mph 38 % 0.00 in 7.00 W/m2
06:42 70.3 °F 43.5 °F 29.82 in Calm   11.0 mph 38 % 0.00 in 11.00 W/m2
06:47 70.3 °F 44.2 °F 29.82 in ESE 1.0 mph 6.0 mph 39 % 0.00 in 14.00 W/m2
06:52 70.2 °F 43.4 °F 29.82 in East 1.0 mph 7.0 mph 38 % 0.00 in 16.00 W/m2
06:57 70.2 °F 44.1 °F 29.82 in East 1.0 mph 11.0 mph 39 % 0.00 in 21.00 W/m2
07:02 70.1 °F 43.3 °F 29.82 in East 6.0 mph 11.0 mph 38 % 0.00 in 26.00 W/m2
07:07 70.0 °F 43.9 °F 29.82 in ESE 11.0 mph 14.0 mph 39 % 0.00 in 42.00 W/m2
07:12 69.9 °F 43.8 °F 29.82 in East 1.0 mph 9.0 mph 39 % 0.00 in 53.00 W/m2
07:17 69.9 °F 43.8 °F 29.82 in ESE 2.0 mph 8.0 mph 39 % 0.00 in 70.00 W/m2
07:22 69.9 °F 43.8 °F 29.82 in Calm   7.0 mph 39 % 0.00 in 83.00 W/m2
07:27 69.8 °F 44.4 °F 29.82 in ESE 1.0 mph 11.0 mph 40 % 0.00 in 105.00 W/m2
07:32 69.8 °F 44.4 °F 29.83 in East 1.0 mph 10.0 mph 40 % 0.00 in 121.00 W/m2
07:37 69.9 °F 44.5 °F 29.83 in ESE 1.0 mph 9.0 mph 40 % 0.00 in 142.00 W/m2
07:42 69.9 °F 44.5 °F 29.83 in ESE 4.0 mph 11.0 mph 40 % 0.00 in 162.00 W/m2
07:47 70.0 °F 45.2 °F 29.83 in ESE 1.0 mph 7.0 mph 41 % 0.00 in 181.00 W/m2
07:52 70.1 °F 45.3 °F 29.83 in ESE 1.0 mph 9.0 mph 41 % 0.00 in 197.00 W/m2
07:57 70.3 °F 45.5 °F 29.83 in Calm   6.0 mph 41 % 0.00 in 218.00 W/m2
08:02 70.3 °F 45.5 °F 29.83 in Calm   7.0 mph 41 % 0.00 in 246.00 W/m2
08:07 70.4 °F 46.2 °F 29.83 in East 9.0 mph 9.0 mph 42 % 0.00 in 267.00 W/m2
08:09 70.5 °F 46.3 °F 29.83 in ESE 2.0 mph 11.0 mph 42 % 0.00 in 276.00 W/m2
08:14 70.6 °F 46.4 °F 29.83 in ESE 4.0 mph 8.0 mph 42 % 0.00 in 294.00 W/m2
08:19 70.7 °F 45.9 °F 29.83 in ESE 1.0 mph 6.0 mph 41 % 0.00 in 313.00 W/m2
08:24 70.8 °F 46.0 °F 29.83 in ESE 1.0 mph 8.0 mph 41 % 0.00 in 329.00 W/m2
08:29 71.0 °F 46.1 °F 29.83 in Calm   11.0 mph 41 % 0.00 in 341.00 W/m2
08:34 71.1 °F 46.9 °F 29.83 in ESE 2.0 mph 7.0 mph 42 % 0.00 in 364.00 W/m2
08:39 71.3 °F 47.7 °F 29.84 in ESE 1.0 mph 9.0 mph 43 % 0.00 in 380.00 W/m2
08:44 71.4 °F 47.8 °F 29.84 in Calm   6.0 mph 43 % 0.00 in 394.00 W/m2
08:49 71.5 °F 47.8 °F 29.84 in ESE 2.0 mph 5.0 mph 43 % 0.00 in 413.00 W/m2
08:54 71.7 °F 48.7 °F 29.84 in Calm   5.0 mph 44 % 0.00 in 429.00 W/m2
08:59 71.9 °F 49.4 °F 29.84 in Calm   5.0 mph 45 % 0.00 in 443.00 W/m2
09:04 72.1 °F 49.6 °F 29.84 in Calm   6.0 mph 45 % 0.00 in 457.00 W/m2
09:09 72.3 °F 49.8 °F 29.84 in Calm   4.0 mph 45 % 0.00 in 475.00 W/m2
09:14 72.6 °F 50.7 °F 29.84 in Calm   7.0 mph 46 % 0.00 in 492.00 W/m2
09:19 73.0 °F 51.0 °F 29.85 in ESE 1.0 mph 5.0 mph 46 % 0.00 in 506.00 W/m2
09:24 73.4 °F 51.4 °F 29.85 in ESE 6.0 mph 7.0 mph 46 % 0.00 in 520.00 W/m2
09:30 73.7 °F 50.5 °F 29.85 in Calm   5.0 mph 44 % 0.00 in 536.00 W/m2
09:35 74.1 °F 51.4 °F 29.85 in Calm   6.0 mph 45 % 0.00 in 552.00 W/m2
09:40 74.5 °F 51.2 °F 29.85 in Calm   6.0 mph 44 % 0.00 in 566.00 W/m2
09:45 74.9 °F 51.5 °F 29.85 in Calm   4.0 mph 44 % 0.00 in 580.00 W/m2
09:50 75.4 °F 51.4 °F 29.85 in Calm   2.0 mph 43 % 0.00 in 594.00 W/m2
09:55 75.8 °F 51.1 °F 29.85 in Calm   4.0 mph 42 % 0.00 in 606.00 W/m2
10:00 76.2 °F 49.5 °F 29.85 in Calm   6.0 mph 39 % 0.00 in 619.00 W/m2
10:05 76.6 °F 48.4 °F 29.85 in Calm   5.0 mph 37 % 0.00 in 631.00 W/m2
10:10 76.9 °F 48.7 °F 29.85 in SSE 4.0 mph 7.0 mph 37 % 0.00 in 643.00 W/m2
10:15 77.3 °F 47.5 °F 29.85 in SSE 1.0 mph 2.0 mph 35 % 0.00 in 654.00 W/m2
10:20 77.6 °F 46.2 °F 29.85 in Calm   4.0 mph 33 % 0.00 in 666.00 W/m2
10:25 77.9 °F 45.7 °F 29.85 in Calm   5.0 mph 32 % 0.00 in 679.00 W/m2
10:30 78.3 °F 44.3 °F 29.85 in SSE 4.0 mph 7.0 mph 30 % 0.00 in 684.00 W/m2
10:35 78.9 °F 46.6 °F 29.85 in Calm   4.0 mph 32 % 0.00 in 693.00 W/m2
10:40 79.4 °F 47.8 °F 29.85 in SSE 1.0 mph 5.0 mph 33 % 0.00 in 707.00 W/m2
10:45 79.9 °F 48.3 °F 29.86 in Calm   8.0 mph 33 % 0.00 in 719.00 W/m2
10:50 80.4 °F 49.5 °F 29.86 in SW 1.0 mph 2.0 mph 34 % 0.00 in 729.00 W/m2
10:55 80.9 °F 48.3 °F 29.86 in Calm   8.0 mph 32 % 0.00 in 742.00 W/m2
11:00 81.5 °F 48.8 °F 29.86 in Calm   8.0 mph 32 % 0.00 in 752.00 W/m2
11:06 82.0 °F 48.4 °F 29.86 in Calm   3.0 mph 31 % 0.00 in 765.00 W/m2
11:11 82.4 °F 49.6 °F 29.86 in Calm   7.0 mph 32 % 0.00 in 772.00 W/m2
11:16 82.9 °F 49.2 °F 29.86 in South 1.0 mph 4.0 mph 31 % 0.00 in 779.00 W/m2
11:21 83.3 °F 48.7 °F 29.86 in Calm   8.0 mph 30 % 0.00 in 780.00 W/m2
11:26 83.7 °F 49.9 °F 29.86 in SE 1.0 mph 11.0 mph 31 % 0.00 in 791.00 W/m2
11:31 84.2 °F 49.4 °F 29.86 in Calm   7.0 mph 30 % 0.00 in 800.00 W/m2
11:36 84.6 °F 47.9 °F 29.86 in Calm   9.0 mph 28 % 0.00 in 812.00 W/m2
11:41 85.1 °F 47.4 °F 29.86 in South 5.0 mph 5.0 mph 27 % 0.00 in 817.00 W/m2
11:46 85.6 °F 48.8 °F 29.85 in Calm   6.0 mph 28 % 0.00 in 821.00 W/m2
11:51 86.1 °F 46.2 °F 29.85 in SSW 7.0 mph 10.0 mph 25 % 0.00 in 828.00 W/m2
11:56 86.5 °F 43.2 °F 29.85 in Calm   7.0 mph 22 % 0.00 in 835.00 W/m2
12:01 87.2 °F 46.0 °F 29.85 in Calm   5.0 mph 24 % 0.00 in 837.00 W/m2
12:06 87.7 °F 47.5 °F 29.85 in Calm   4.0 mph 25 % 0.00 in 840.00 W/m2
12:11 88.2 °F 44.6 °F 29.85 in SSW 6.0 mph 11.0 mph 22 % 0.00 in 846.00 W/m2
12:16 88.8 °F 43.9 °F 29.85 in South 3.0 mph 8.0 mph 21 % 0.00 in 846.00 W/m2
12:21 89.3 °F 43.0 °F 29.85 in SW 4.0 mph 8.0 mph 20 % 0.00 in 854.00 W/m2
12:26 89.8 °F 42.1 °F 29.84 in WSW 2.0 mph 9.0 mph 19 % 0.00 in 854.00 W/m2
12:31 90.1 °F 39.5 °F 29.84 in SSW 5.0 mph 11.0 mph 17 % 0.00 in 856.00 W/m2
12:36 90.6 °F 41.3 °F 29.84 in SW 5.0 mph 6.0 mph 18 % 0.00 in 858.00 W/m2
12:41 90.7 °F 42.8 °F 29.84 in SW 8.0 mph 11.0 mph 19 % 0.00 in 861.00 W/m2
12:46 90.9 °F 41.6 °F 29.84 in South 6.0 mph 11.0 mph 18 % 0.00 in 858.00 W/m2
12:51 91.1 °F 43.2 °F 29.84 in Calm   9.0 mph 19 % 0.00 in 858.00 W/m2
12:56 91.1 °F 43.2 °F 29.84 in SW 6.0 mph 13.0 mph 19 % 0.00 in 858.00 W/m2
13:01 91.6 °F 40.7 °F 29.84 in SSW 1.0 mph 10.0 mph 17 % 0.00 in 872.00 W/m2
13:06 92.2 °F 41.2 °F 29.84 in SE 2.0 mph 6.0 mph 17 % 0.00 in 879.00 W/m2
13:11 92.8 °F 40.1 °F 29.84 in Calm     16 % 0.00 in 858.00 W/m2
13:16 93.1 °F 38.7 °F 29.84 in SSE 6.0 mph 7.0 mph 15 % 0.00 in 870.00 W/m2
13:21 93.3 °F 40.5 °F 29.84 in South 2.0 mph 2.0 mph 16 % 0.00 in 872.00 W/m2
13:26 93.2 °F 40.4 °F 29.84 in SW 5.0 mph 10.0 mph 16 % 0.00 in 870.00 W/m2
13:31 93.6 °F 37.3 °F 29.84 in SW 1.0 mph 8.0 mph 14 % 0.00 in 861.00 W/m2
13:36 94.1 °F 35.8 °F 29.83 in SSW 4.0 mph 6.0 mph 13 % 0.00 in 865.00 W/m2
13:41 94.2 °F 33.9 °F 29.83 in SSW 8.0 mph 9.0 mph 12 % 0.00 in 865.00 W/m2
13:46 94.3 °F 37.8 °F 29.83 in SSW 2.0 mph 4.0 mph 14 % 0.00 in 849.00 W/m2
13:51 94.7 °F 34.3 °F 29.83 in South 11.0 mph 14.0 mph 12 % 0.00 in 846.00 W/m2
13:56 95.0 °F 38.4 °F 29.83 in SW 4.0 mph 8.0 mph 14 % 0.00 in 840.00 W/m2
14:01 95.3 °F 36.7 °F 29.83 in SW 5.0 mph 11.0 mph 13 % 0.00 in 846.00 W/m2
14:06 95.2 °F 34.7 °F 29.83 in SSW 1.0 mph 7.0 mph 12 % 0.00 in 838.00 W/m2
14:11 95.5 °F 38.8 °F 29.83 in South 5.0 mph 5.0 mph 14 % 0.00 in 830.00 W/m2
14:16 95.8 °F 37.1 °F 29.83 in Calm   1.0 mph 13 % 0.00 in 817.00 W/m2
14:21 95.3 °F 36.7 °F 29.83 in SW 2.0 mph 7.0 mph 13 % 0.00 in 814.00 W/m2
14:26 95.0 °F 34.5 °F 29.83 in SW 7.0 mph 8.0 mph 12 % 0.00 in 802.00 W/m2
14:31 94.8 °F 36.3 °F 29.83 in SSW 1.0 mph 1.0 mph 13 % 0.00 in 796.00 W/m2
14:36 94.1 °F 33.8 °F 29.82 in Calm   3.0 mph 12 % 0.00 in 786.00 W/m2
14:42 93.6 °F 33.4 °F 29.82 in South 8.0 mph 8.0 mph 12 % 0.00 in 773.00 W/m2
14:47 93.5 °F 33.3 °F 29.82 in Calm   2.0 mph 12 % 0.00 in 766.00 W/m2
14:52 93.4 °F 35.3 °F 29.82 in Calm   3.0 mph 13 % 0.00 in 758.00 W/m2
14:57 93.3 °F 37.0 °F 29.82 in Calm     14 % 0.00 in 747.00 W/m2
15:02 93.2 °F 38.7 °F 29.82 in West 1.0 mph 5.0 mph 15 % 0.00 in 737.00 W/m2
15:07 93.2 °F 40.4 °F 29.82 in WSW 2.0 mph 5.0 mph 16 % 0.00 in 728.00 W/m2
15:12 93.3 °F 38.8 °F 29.82 in Calm   3.0 mph 15 % 0.00 in 717.00 W/m2
15:17 93.2 °F 40.4 °F 29.82 in WSW 1.0 mph 4.0 mph 16 % 0.00 in 705.00 W/m2
15:22 93.0 °F 41.8 °F 29.82 in Calm   3.0 mph 17 % 0.00 in 696.00 W/m2
15:27 92.7 °F 40.0 °F 29.81 in Calm     16 % 0.00 in 686.00 W/m2
15:32 92.4 °F 39.8 °F 29.81 in Calm     16 % 0.00 in 671.00 W/m2
15:37 92.2 °F 41.2 °F 29.81 in NNW 6.0 mph 9.0 mph 17 % 0.00 in 659.00 W/m2
15:42 92.0 °F 41.0 °F 29.81 in NW 1.0 mph 3.0 mph 17 % 0.00 in 645.00 W/m2
15:47 91.8 °F 40.8 °F 29.81 in Calm   7.0 mph 17 % 0.00 in 633.00 W/m2
15:52 91.6 °F 42.2 °F 29.81 in Calm   3.0 mph 18 % 0.00 in 621.00 W/m2
15:57 91.5 °F 42.1 °F 29.81 in WNW 2.0 mph 4.0 mph 18 % 0.00 in 606.00 W/m2
16:02 91.5 °F 43.5 °F 29.81 in WNW 3.0 mph 4.0 mph 19 % 0.00 in 592.00 W/m2
16:07 91.4 °F 42.0 °F 29.81 in NNW 1.0 mph 9.0 mph 18 % 0.00 in 582.00 W/m2
16:12 91.3 °F 41.9 °F 29.81 in Calm     18 % 0.00 in 568.00 W/m2
16:17 91.2 °F 43.2 °F 29.81 in Calm   1.0 mph 19 % 0.00 in 554.00 W/m2
16:22 91.2 °F 43.2 °F 29.81 in Calm   2.0 mph 19 % 0.00 in 540.00 W/m2
16:27 91.2 °F 43.2 °F 29.81 in Calm   3.0 mph 19 % 0.00 in 524.00 W/m2
16:32 91.3 °F 44.7 °F 29.81 in NW 1.0 mph 1.0 mph 20 % 0.00 in 512.00 W/m2
16:37 91.4 °F 43.4 °F 29.81 in Calm     19 % 0.00 in 497.00 W/m2
16:42 91.4 °F 43.4 °F 29.81 in WNW 2.0 mph 4.0 mph 19 % 0.00 in 483.00 W/m2
16:47 91.5 °F 43.5 °F 29.80 in WNW 1.0 mph 3.0 mph 19 % 0.00 in 473.00 W/m2
16:52 91.5 °F 42.1 °F 29.80 in Calm     18 % 0.00 in 457.00 W/m2
16:57 91.6 °F 43.5 °F 29.80 in Calm     19 % 0.00 in 441.00 W/m2
17:02 91.4 °F 43.4 °F 29.80 in Calm     19 % 0.00 in 425.00 W/m2
17:07 91.3 °F 44.7 °F 29.80 in Calm     20 % 0.00 in 410.00 W/m2
17:12 91.3 °F 45.9 °F 29.80 in Calm     21 % 0.00 in 394.00 W/m2
17:17 91.0 °F 41.7 °F 29.80 in Calm     18 % 0.00 in 376.00 W/m2
17:22 91.0 °F 41.7 °F 29.80 in Calm     18 % 0.00 in 359.00 W/m2
17:27 90.9 °F 43.0 °F 29.80 in Calm     19 % 0.00 in 346.00 W/m2
17:32 90.8 °F 45.5 °F 29.80 in Calm     21 % 0.00 in 329.00 W/m2
17:37 90.8 °F 45.5 °F 29.80 in Calm     21 % 0.00 in 313.00 W/m2
17:42 90.6 °F 45.4 °F 29.80 in Calm   1.0 mph 21 % 0.00 in 294.00 W/m2
17:47 90.5 °F 46.5 °F 29.80 in Calm   1.0 mph 22 % 0.00 in 279.00 W/m2
17:52 90.4 °F 45.2 °F 29.80 in Calm     21 % 0.00 in 262.00 W/m2
17:57 90.2 °F 46.2 °F 29.80 in Calm     22 % 0.00 in 246.00 W/m2
18:02 90.1 °F 46.2 °F 29.80 in Calm     22 % 0.00 in 232.00 W/m2
18:07 89.9 °F 47.2 °F 29.80 in Calm     23 % 0.00 in 216.00 W/m2
18:12 89.5 °F 46.8 °F 29.80 in Calm     23 % 0.00 in 200.00 W/m2
18:17 89.0 °F 48.7 °F 29.80 in Calm     25 % 0.00 in 183.00 W/m2
18:22 88.4 °F 49.2 °F 29.80 in Calm     26 % 0.00 in 165.00 W/m2
18:27 88.0 °F 48.8 °F 29.80 in Calm     26 % 0.00 in 146.00 W/m2
18:32 87.5 °F 49.4 °F 29.80 in Calm   1.0 mph 27 % 0.00 in 127.00 W/m2
18:37 87.0 °F 49.0 °F 29.80 in Calm     27 % 0.00 in 107.00 W/m2
18:42 86.5 °F 49.6 °F 29.80 in Calm     28 % 0.00 in 90.00 W/m2
18:47 86.1 °F 49.2 °F 29.80 in Calm     28 % 0.00 in 74.00 W/m2
18:52 85.6 °F 48.8 °F 29.80 in Calm     28 % 0.00 in 62.00 W/m2
18:57 85.1 °F 49.3 °F 29.80 in Calm   2.0 mph 29 % 0.00 in 49.00 W/m2
19:02 84.5 °F 48.8 °F 29.80 in Calm     29 % 0.00 in 37.00 W/m2
19:08 84.0 °F 48.4 °F 29.80 in Calm   1.0 mph 29 % 0.00 in 28.00 W/m2
19:13 83.5 °F 48.8 °F 29.81 in Calm   1.0 mph 30 % 0.00 in 21.00 W/m2
19:18 83.1 °F 47.6 °F 29.81 in Calm   1.0 mph 29 % 0.00 in 16.00 W/m2
19:23 82.7 °F 47.2 °F 29.81 in Calm   1.0 mph 29 % 0.00 in 14.00 W/m2
19:28 82.3 °F 46.9 °F 29.81 in WNW 3.0 mph 4.0 mph 29 % 0.00 in 11.00 W/m2
19:33 82.0 °F 46.6 °F 29.81 in WNW 2.0 mph 3.0 mph 29 % 0.00 in 9.00 W/m2
19:38 81.6 °F 46.3 °F 29.81 in WNW 3.0 mph 4.0 mph 29 % 0.00 in 5.00 W/m2
19:43 81.2 °F 45.0 °F 29.81 in WNW 3.0 mph 4.0 mph 28 % 0.00 in 0.00 W/m2
19:48 80.8 °F 44.7 °F 29.81 in WNW 3.0 mph 4.0 mph 28 % 0.00 in 0.00 W/m2
19:53 80.5 °F 44.4 °F 29.81 in WNW 5.0 mph 5.0 mph 28 % 0.00 in 0.00 W/m2
19:58 80.2 °F 44.2 °F 29.81 in WNW 3.0 mph 4.0 mph 28 % 0.00 in 0.00 W/m2
20:03 80.0 °F 43.0 °F 29.81 in WNW 2.0 mph 4.0 mph 27 % 0.00 in 0.00 W/m2
20:08 79.9 °F 42.0 °F 29.81 in WNW 3.0 mph 4.0 mph 26 % 0.00 in 0.00 W/m2
20:18 79.7 °F 42.8 °F 29.82 in Calm     27 % 0.00 in 0.00 W/m2
20:20 79.7 °F 41.8 °F 29.82 in WNW 3.0 mph 4.0 mph 26 % 0.00 in 0.00 W/m2
20:24 79.6 °F 41.7 °F 29.82 in WNW 4.0 mph 4.0 mph 26 % 0.00 in 0.00 W/m2
20:25 79.6 °F 41.7 °F 29.82 in WNW 3.0 mph 4.0 mph 26 % 0.00 in 0.00 W/m2
20:26 79.5 °F 41.7 °F 29.82 in WNW 1.0 mph 4.0 mph 26 % 0.00 in 0.00 W/m2
20:27 79.5 °F 41.7 °F 29.82 in WNW 3.0 mph 4.0 mph 26 % 0.00 in 0.00 W/m2
20:32 79.4 °F 41.6 °F 29.82 in WNW 3.0 mph 3.0 mph 26 % 0.00 in 0.00 W/m2
20:37 79.3 °F 41.5 °F 29.82 in WNW 2.0 mph 3.0 mph 26 % 0.00 in 0.00 W/m2
20:42 79.3 °F 41.5 °F 29.82 in WNW 2.0 mph 3.0 mph 26 % 0.00 in 0.00 W/m2
20:47 79.1 °F 42.3 °F 29.82 in WNW 1.0 mph 3.0 mph 27 % 0.00 in 0.00 W/m2
20:52 79.1 °F 42.3 °F 29.82 in Calm     27 % 0.00 in 0.00 W/m2
20:57 78.9 °F 42.1 °F 29.82 in WNW 3.0 mph 4.0 mph 27 % 0.00 in 0.00 W/m2
21:02 78.9 °F 42.1 °F 29.83 in NW 3.0 mph 4.0 mph 27 % 0.00 in 0.00 W/m2
21:07 78.8 °F 42.0 °F 29.83 in NW 2.0 mph 4.0 mph 27 % 0.00 in 0.00 W/m2
21:12 78.8 °F 42.0 °F 29.83 in NNW 4.0 mph 5.0 mph 27 % 0.00 in 0.00 W/m2
21:17 78.8 °F 43.0 °F 29.83 in NNW 3.0 mph 4.0 mph 28 % 0.00 in 0.00 W/m2
21:22 78.8 °F 43.0 °F 29.83 in North 4.0 mph 5.0 mph 28 % 0.00 in 0.00 W/m2
21:27 78.9 °F 42.1 °F 29.83 in NNE 3.0 mph 6.0 mph 27 % 0.00 in 0.00 W/m2
21:32 78.9 °F 42.1 °F 29.83 in NE 5.0 mph 6.0 mph 27 % 0.00 in 0.00 W/m2
21:37 78.9 °F 43.1 °F 29.83 in Calm   6.0 mph 28 % 0.00 in 0.00 W/m2
21:42 79.0 °F 43.2 °F 29.83 in Calm   6.0 mph 28 % 0.00 in 0.00 W/m2
21:47 79.0 °F 43.2 °F 29.83 in ENE 2.0 mph 5.0 mph 28 % 0.00 in 0.00 W/m2
21:52 79.1 °F 44.2 °F 29.83 in East 1.0 mph 10.0 mph 29 % 0.00 in 0.00 W/m2
21:57 79.1 °F 44.2 °F 29.84 in East 4.0 mph 12.0 mph 29 % 0.00 in 0.00 W/m2
21:59 79.1 °F 44.2 °F 29.84 in East 7.0 mph 12.0 mph 29 % 0.00 in 0.00 W/m2
22:04 79.1 °F 44.2 °F 29.84 in East 7.0 mph 9.0 mph 29 % 0.00 in 0.00 W/m2
22:09 78.9 °F 44.0 °F 29.84 in Calm   10.0 mph 29 % 0.00 in 0.00 W/m2
22:14 78.8 °F 43.9 °F 29.84 in Calm   9.0 mph 29 % 0.00 in 0.00 W/m2
22:19 78.8 °F 43.9 °F 29.84 in Calm   7.0 mph 29 % 0.00 in 0.00 W/m2
22:24 78.7 °F 43.8 °F 29.84 in East 5.0 mph 8.0 mph 29 % 0.00 in 0.00 W/m2
22:29 78.7 °F 43.8 °F 29.84 in Calm   13.0 mph 29 % 0.00 in 0.00 W/m2
22:34 78.7 °F 43.8 °F 29.84 in East 6.0 mph 13.0 mph 29 % 0.00 in 0.00 W/m2
22:39 78.7 °F 43.8 °F 29.84 in East 2.0 mph 12.0 mph 29 % 0.00 in 0.00 W/m2
22:44 78.7 °F 43.8 °F 29.84 in East 7.0 mph 11.0 mph 29 % 0.00 in 0.00 W/m2
22:50 78.8 °F 43.9 °F 29.84 in East 2.0 mph 9.0 mph 29 % 0.00 in 0.00 W/m2
22:55 78.8 °F 43.9 °F 29.84 in East 9.0 mph 11.0 mph 29 % 0.00 in 0.00 W/m2
23:00 78.9 °F 44.0 °F 29.84 in East 5.0 mph 13.0 mph 29 % 0.00 in 0.00 W/m2
23:05 78.9 °F 44.0 °F 29.84 in ESE 2.0 mph 11.0 mph 29 % 0.00 in 0.00 W/m2
23:10 78.9 °F 44.0 °F 29.84 in East 7.0 mph 11.0 mph 29 % 0.00 in 0.00 W/m2
23:15 78.9 °F 44.0 °F 29.84 in East 13.0 mph 14.0 mph 29 % 0.00 in 0.00 W/m2
23:20 78.9 °F 44.0 °F 29.84 in East 8.0 mph 13.0 mph 29 % 0.00 in 0.00 W/m2
23:25 78.9 °F 43.1 °F 29.84 in East 2.0 mph 13.0 mph 28 % 0.00 in 0.00 W/m2
23:30 78.9 °F 43.1 °F 29.84 in East 11.0 mph 13.0 mph 28 % 0.00 in 0.00 W/m2
23:35 78.9 °F 43.1 °F 29.84 in East 4.0 mph 14.0 mph 28 % 0.00 in 0.00 W/m2
23:40 78.9 °F 43.1 °F 29.84 in Calm   9.0 mph 28 % 0.00 in 0.00 W/m2
23:45 78.8 °F 43.9 °F 29.84 in ESE 6.0 mph 7.0 mph 29 % 0.00 in 0.00 W/m2
23:50 78.8 °F 43.9 °F 29.84 in East 1.0 mph 8.0 mph 29 % 0.00 in 0.00 W/m2
23:55 78.8 °F 43.9 °F 29.84 in ESE 2.0 mph 9.0 mph 29 % 0.00 in 0.00 W/m2
Juneau County Weather
Compliments of Weather Underground - 4.75 mb
 WU-history PHP script courtesy of   Juneau County Weather.
powered by Cumulus v1.9.3 (1059)
Ambient Weather VWS v14.00
Top Contact Website Map Copyright © 2007 - 2018 Foresthillweather.com Never base important decisions on this or any weather information obtained from the Internet